Powrót do katalogu

ONEWEB-0378

AktywnyŁącznośćPO
NORAD 49304·PAYLOAD·🇬🇧 United Kingdom

Wystrzelony Oct 14, 2021 z Vostochny Cosmodrome

Loading…

Następne Przeloty (najbliższe 24 godziny)

TLE

ŚwieżeSource: CelesTrak SupGP

Epoka: Sep 14, 2026, 14:07 UTC

1 49304C 21090AB  26257.58873103 -.00002611  00000+0 -64283-2 0  2572
2 49304  87.9140 256.6051 0002154  91.4743 330.6901 13.20775928    13

Śledź ONEWEB-0378 w czasie rzeczywistym z AllMySat

Download on the App Store